User: anonymous   Login
Location: Unspecified
(0.0000°N, 0.0000°E)
Time: 04:47:51
(UTC+00:00)
Language:

GOSAT - Orbit

View from above orbital plane
View from above orbital plane
View from above satellite
View from above satellite

Ground track
Ground track

The orbit data is extracted from the following two-line orbital elements,

1 33492U 09002A   16125.74817958 -.00000132  00000-0 -14782-4 0  9990
2 33492  98.0931 235.4964 0001688  89.8184 270.3218 14.67535588389923
Epoch (UTC): 04 May 2016 17:57:22
Eccentricity: 0.0001688
inclination: 98.0931°
perigee height: 668 km
apogee height: 670 km
right ascension of ascending node: 235.4964°
argument of perigee: 89.8184°
revolutions per day: 14.67535588
mean anomaly at epoch: 270.3218°
orbit number at epoch: 38992

The dashed part of the orbit path shows where the satellite is in the earth's shadow,  

DLR